KUIPER-00522

导读

KUIPER-00522(NORAD编号69602)是亚马逊公司低轨互联网星座(原柯伊伯计划/Project Kuiper)的组网卫星,属于亚马逊为全球提供高速低延迟宽带服务的卫星网络组成部分。该星座计划部署3236颗低轨卫星,重点覆盖网络接入不足的偏远区域,目前处于组网建设阶段,截至2026年6月已获得FCC批准延期部署,亚马逊累计投入超100亿美元推进项目,卫星搭载相控阵天线与星间激光链路,可依托AWS云服务实现高效通信支撑。

基本信息
目录编号:
69602
目录名称:
KUIPER-00522
国际标识:
2026-140L
轨道中心:
EARTH
卫星名称:
KUIPER-00522
卫星全名:
KUIPER-00522
卫星状态:
在轨 (已飞行70 天)
发射日期:
2026-06-17 UTC
国别 :
美国 (US)
星等 :
--
轨道信息
数据来源 国际轨道数据
星历时间: 2026-08-26T12:00:02+0800
6小时前
查看轨道信息
半长轴: 6860.574km
偏心率: 0.0014151
轨道倾角: 51.880°
近地点辐角 53.699°
升交点赤经 60.318°
平近点角 162.907°
近地点: 472.728km
远地点: 492.146km
周期: 94.254分钟
每日圈数: 15.277845
详细信息
使用方式:
暂无
2D轨道图
3D轨道图
轨道高度分析图
轨道倾角分析图
轨道综合分析图
查看轨道综合分析图